Showing default

FLOCK 4G 14, 62667

Orbit data source: Space-Track

FLOCK 4G 14, 62667 is a payload satellite owned by Planet (US) in SSO that was launched on Tue, 14 Jan 2025 UTC via an FALCON 9 launch vehicle from the Air Force Western Test Range (AFWTR). Payload-class satellites include a variety of spacecraft equipped with specific instruments for various scientific and technological missions. These include communications satellites like Starlink; space stations such as the ISS; scientific satellites like the Hubble; Earth observation satellites from companies like Planet Labs, Umbra, and HawkEye 360; GPS; miniature CubeSats for education and research; and military/defense satellites.

Loading next visibility...
Identifier
62667, 2025-009BL
Orbit
SSO
Country
Flag of USUS
Related business
Manufacturer
Planet
Mission
Operational Commercial Imaging
Bus & Motor
CUBESAT 3U, Unknown motor
Mass
5.7 kg wet, 5.7 kg dry
Launch date (UTC)
2025-01-14 (2 years ago)
Launch vehicle
FALCON 9
Launch site
Air Force Western Test Range (AFWTR)
Object type
Payload
Rocket body
Debris
Shape & HBR
Box + 2 Pan, 1.0 m
Radar Cross Section
0.072 m², Medium (>0.1 m² and < 1m²)

Expand to show TLE details & history
Last TLE update: 8 hours ago

TLE from 8 hours ago
0 FLOCK 4G 14
1 62667U 25009BL  26238.13977450  .00009958  00000-0  34017-3 0  9999
2 62667  97.4000 319.6713 0005773  77.1108 283.0777 15.30482961 89599
Epoch: 2026-08-26T03:21Z
TLE epoch observation values (Epoch: 2026-08-26T03:21:16.516Z)
Latitude
-0.00008°
Longitude
-65.04456°
Altitude
476.582 km
Speed
7.628 km/s
True Right ascension
21h 18m 41s
True Declination
0° 00' 00"
Sunlit
Object was in full shadow at epoch
Visualization orbit readout
Latitude
Unknown
Longitude
Unknown
Altitude
Unknown
Speed
Unknown
Apparent Right ascension
Unknown
Apparent Declination
Unknown
Sunlit
N/A
Visualization observer readout
Local Sidereal Time
02:59:17
Azimuth
Unknown
Elevation
Unknown
Doppler factor
Unknown
Orbital elements
Apogee altitude
475.276 km
Perigee altitude
467.368 km
Semi-major axis
6,849.459 km
Eccentricity
0.00058
Inclination
97.4°
RAAN
319.6713°
Arg. of periapsis
77.1108°
True anomaly
283.01325°
Mean anomaly
283.0777°
Eccentric anomaly
283.04548°
Mean motion
3.82877 °/min
Orbital period
94.03 mins
BSTAR
0.00034017
Loading maneuver chart data...
Computing Atmospheric mass density...
Loading historical data...
Loading historical data...
Loading historical data...
Loading historical data...
Loading historical data...
Loading historical data...
Loading historical data...

Documentation

Showing up to 5 results
|